EFHKFMI Weather Reports


time (UTC)temp
C
wind
direction
speed
KPH
gust
KPH
rain 1hr
cm
rain 24hr
cm
rain mn
cm
humidity
%
barometer
mb
20260506084719 10 268 14.5 24.1 0.00 0.00 0.00 33 1012.9
20260506082720 8 291 17.7 24.1 0.00 0.00 0.00 36 1012.9
20260506080719 8 320 17.7 30.6 0.00 0.00 0.00 34 1012.8
20260506072719 8 273 17.7 25.7 0.00 0.00 0.00 40 1012.5
20260506070719 8 296 17.7 25.7 0.00 0.00 0.00 44 1012.5
20260506060719 6 281 12.9 17.7 0.00 0.00 0.00 56 1012.1
20260506050719 5 288 17.7 22.5 0.00 0.00 0.00 64 1011.6
20260506044719 3 284 14.5 20.9 0.00 0.00 0.00 67 1011.3
20260506042719 3 285 14.5 19.3 0.00 0.00 0.00 71 1011.2
20260506040718 2 266 11.3 16.1 0.00 0.00 0.00 74 1011.1
20260506034718 1 251 9.7 12.9 0.00 0.00 0.00 77 1010.9
20260506032718 1 247 8.0 11.3 0.00 0.00 0.00 80 1010.7
20260506030719 0 253 9.7 12.9 0.00 0.00 0.00 84 1010.6
20260506024718 -1 246 9.7 11.3 0.00 0.00 0.00 85 1010.4
20260506022718 -1 258 9.7 9.7 0.00 0.00 0.00 84 1010.2
20260506020718 -1 269 9.7 11.3 0.00 0.00 0.00 84 1010.0
20260506014718 -1 275 9.7 11.3 0.00 0.00 0.00 85 1009.9
20260506012718 -1 275 8.0 11.3 0.00 0.00 0.00 86 1009.9
20260506010718 0 269 9.7 11.3 0.00 0.00 0.00 82 1009.7
20260506004718 0 258 9.7 11.3 0.00 0.00 0.00 78 1009.5
20260506002718 1 263 11.3 12.9 0.00 0.00 0.00 74 1009.3
20260506000717 1 263 12.9 16.1 0.00 0.00 0.00 73 1009.2
20260505234718 1 268 11.3 16.1 0.00 0.00 0.00 71 1009.0
20260505232718 1 274 14.5 19.3 0.00 0.00 0.00 69 1008.8
20260505230718 1 280 12.9 17.7 0.00 0.00 0.00 70 1008.7
20260505224717 2 276 11.3 14.5 0.00 0.00 0.00 68 1008.6
20260505222717 2 274 12.9 16.1 0.00 0.00 0.00 66 1008.5
20260505220717 3 275 11.3 17.7 0.00 0.00 0.00 63 1008.4
20260505214718 3 270 11.3 14.5 0.00 0.00 0.00 62 1008.3
20260505212718 3 271 11.3 14.5 0.00 0.00 0.00 60 1008.1
20260505210717 3 276 11.3 14.5 0.00 0.00 0.00 59 1007.9
20260505204717 3 274 9.7 12.9 0.00 0.00 0.00 58 1007.6
20260505202717 4 283 9.7 14.5 0.00 0.00 0.00 57 1007.5
20260505200717 4 277 12.9 17.7 0.00 0.00 0.00 55 1007.3
20260505194717 5 276 17.7 20.9 0.00 0.00 0.00 51 1007.1
20260505192717 5 275 20.9 25.7 0.00 0.00 0.00 49 1006.9
20260505190717 6 267 17.7 27.4 0.00 0.00 0.00 46 1006.7
20260505184717 6 262 16.1 24.1 0.00 0.00 0.00 44 1006.5
20260505182717 7 266 17.7 22.5 0.00 0.00 0.00 42 1006.2
20260505180716 7 260 19.3 25.7 0.00 0.00 0.00 41 1006.0
20260505174716 8 265 19.3 27.4 0.00 0.00 0.00 39 1005.8
20260505172716 8 274 24.1 33.8 0.00 0.00 0.00 38 1005.6
20260505170716 8 259 22.5 30.6 0.00 0.00 0.00 39 1005.5
20260505164716 9 275 27.4 33.8 0.00 0.00 0.00 35 1005.4
20260505162716 10 279 25.7 35.4 0.00 0.00 0.00 34 1005.3
20260505160716 10 260 24.1 33.8 0.00 0.00 0.00 31 1005.2
20260505152716 11 270 24.1 30.6 0.00 0.00 0.00 30 1004.9
20260505150716 11 281 24.1 32.2 0.00 0.00 0.00 29 1004.7
20260505124715 11 278 25.7 35.4 0.00 0.00 0.00 38 1004.5
20260505122715 11 279 24.1 37.0 0.00 0.00 0.00 40 1004.1
20260505120715 9 309 25.7 38.6 0.00 0.00 0.00 45 1004.1
20260505114715 11 277 24.1 35.4 0.00 0.15 0.00 40 1003.7
20260505112715 10 293 29.0 38.6 0.00 0.15 0.00 44 1003.6
20260505110715 12 270 29.0 41.8 0.00 0.15 0.00 38 1003.2
20260505100715 11 293 30.6 41.8 0.00 0.23 0.00 44 1002.3
20260505094715 12 287 30.6 45.1 0.00 0.30 0.00 40 1002.1
20260505092715 12 281 27.4 43.5 0.00 0.30 0.00 47 1001.7
20260505090715 11 294 27.4 45.1 0.00 0.30 0.00 51 1001.4